Volver al catálogo

WARATAH SEED-1

ActivoCienciaSSO
NORAD 60469·PAYLOAD·🇦🇺 Australia

Lanzado Aug 16, 2024 desde Vandenberg Space Force Base

Loading…

Próximos Pases (próximas 24 horas)

TLE

ActualizadoSource: Space-Track

Época: Sep 13, 2026, 17:15 UTC

1 60469U 24149B   26256.71921512  .00010194  00000-0  27522-3 0  9990
2 60469  97.3635 337.4780 0000279 233.7165 126.4055 15.37958518115717

Sigue WARATAH SEED-1 en tiempo real con AllMySat

Download on the App Store